{"data":{"norad_id":62114,"epoch":"2026-09-20T22:38:30.132384Z","epoch_age_seconds":143769,"freshness":"FRESH","line1":"1 62114U 24222A   26263.94340431  .00015923  00000+0  58657-3 0  9996","line2":"2 62114  43.0036  98.5141 0001935 268.4715  91.5915 15.27598458102941","mean_motion":15.27598458,"eccentricity":0.0001935,"inclination_deg":43.0036,"raan_deg":98.5141,"arg_perigee_deg":268.4715,"mean_anomaly_deg":91.5915,"bstar":0.00058657,"rev_number":10294,"period_min":94.265609686809,"perigee_km":481.66619788898,"apogee_km":484.32145551891,"semimajor_km":6861.1308267039,"source":"CELESTRAK","updated_at":"2026-09-22T09:00:49.523442Z"}}